This demonstration page uses our WeatherBlox Daily Observations layout. Learn more.

Left ArrowRight Arrow

44.8408, -93.29828

Hourly Observations for March 28, 2017

Temp ( °F °C ) Dew Point ( °F °C ) Humidity (%) Winds ( mph kmh ) Pressure ( in mb ) Visibility ( mi km ) Precip ( " mm )
12:53 am 00:53 Clear 42 5.6 35 1.7 76 76 Calm 30.04 1017 10 16 0.00 0.00
1:53 am 01:53 Mostly Clear 43 6.1 36 2.2 76 76 SSW 3 6 30.06 1018 10 16 0.00 0.00
2:53 am 02:53 Mostly Clear 38 3.3 34 1.1 86 86 Calm 30.07 1018 8 13 0.00 0.00
3:53 am 03:53 Partly Cloudy 39 3.9 34 1.1 82 82 Calm 30.07 1018 8 13 0.00 0.00
4:53 am 04:53 Partly Cloudy 38 3.3 34 1.1 86 86 Calm 30.09 1019 7 11 0.00 0.00
5:53 am 05:53 Mostly Clear 36 2.2 33 0.6 89 89 WNW 3 6 30.11 1020 8 13 0.00 0.00
6:53 am 06:53 Mostly Clear with Patchy Fog 36 2.2 33 0.6 89 89 Calm 30.11 1020 8 13 0.00 0.00
7:53 am 07:53 Mostly Sunny 38 3.3 34 1.1 86 86 Calm 30.13 1020 9 14 0.00 0.00
8:53 am 08:53 Sunny 42 5.6 36 2.2 79 79 Calm 30.15 1021 8 13 0.00 0.00
9:53 am 09:53 Mostly Sunny 47 8.3 37 2.8 69 69 Calm 30.16 1021 9 14 0.00 0.00
10:53 am 10:53 Mostly Sunny 52 11.1 37 2.8 57 57 Calm 30.16 1021 9 14 0.00 0.00
11:53 am 11:53 Mostly Sunny 57 13.9 36 2.2 45 45 ENE 7 11 30.16 1022 10 16 0.00 0.00
12:53 pm 12:53 Mostly Sunny 58 14.4 36 2.2 44 44 SSE 6 9 30.16 1022 10 16 0.00 0.00
1:53 pm 13:53 Partly Cloudy 61 16.1 34 1.1 36 36 NE 3 6 30.15 1021 10 16 0.00 0.00
2:53 pm 14:53 Partly Cloudy 62 16.7 31 -0.6 31 31 Calm 30.15 1021 10 16 0.00 0.00
3:53 pm 15:53 Mostly Cloudy 64 17.8 28 -2.2 26 26 undefined N/A 30.13 1020 10 16 0.00 0.00
4:53 pm 16:53 Mostly Cloudy 62 16.7 28 -2.2 28 28 SSE 5 7 30.12 1020 10 16 0.00 0.00
5:53 pm 17:53 Mostly Cloudy 64 17.8 30 -1.1 28 28 ENE 3 6 30.13 1020 10 16 0.00 0.00
6:53 pm 18:53 Partly Cloudy 61 16.1 28 -2.2 29 29 E 6 9 30.14 1021 10 16 0.00 0.00
7:53 pm 19:53 Partly Cloudy 58 14.4 30 -1.1 35 35 E 7 11 30.17 1022 10 16 0.00 0.00
8:53 pm 20:53 Mostly Cloudy 57 13.9 30 -1.1 36 36 VRB 5 7 30.18 1022 10 16 0.00 0.00
9:53 pm 21:53 Mostly Cloudy 53 11.7 30 -1.1 41 41 VRB 3 6 30.20 1023 10 16 0.00 0.00
10:53 pm 22:53 Mostly Cloudy 54 12.2 30 -1.1 40 40 Calm 30.21 1023 10 16 0.00 0.00
11:53 pm 23:53 Mostly Cloudy 51 10.6 31 -0.6 46 46 NE 5 7 30.19 1022 10 16 0.00 0.00

Powered by AerisWeather